    Observer details:
    104 San Marcello Pistoiese.  Observers P. Bacci, L. Tesi, G. Fagioli,
        S. Vergari.  Measurers P. Bacci, L. Tesi, G. Fagioli.  0.60-m f/4
        reflector + CCD.
    160 Castelmartini.  Observers E. Prosperi, S. Prosperi.  Measurer E. Prosperi.
        0.35-m f/10 Schmidt-Cassegrain + CCD.
    204 Schiaparelli Observatory.  Observer L. Buzzi.  0.38-m f/6.8 reflector
        + CCD.
    291 LPL/Spacewatch II.  Observer T. H. Bressi.  1.8-m f/2.7 reflector + CCD.
    300 Bisei Spaceguard Center--BATTeRS.  Observers S. Okumura, S. Urakawa.
        1.0-m f/3.0 reflector + CCD.
    510 Siegen.  Observer H. Bill.  0.43-m f/4.5 reflector + CCD.
    595 Farra d'Isonzo.  Observers E. Pettarin, M. Vivona.  0.40-m f/4.5 reflector
        + CCD.
    703 Catalina Sky Survey.  Observer R. E. Hill.  Measurers J. D. Ahern,
        E. C. Beshore, A. Boattini, G. J. Garradd, A. R. Gibbs, P. Tricarico,
        A. D. Grauer, R. E. Hill, R. A. Kowalski, S. M. Larson, R. H. McNaught.
        0.68-m Schmidt + CCD.
    718 Wiggins Observatory, Tooele.  Observer P. Wiggins.  0.35-m f/5.5
        Schmidt-Cassegrain + CCD.
    807 Cerro Tololo.  Observers R. Holmes, T. Linder, V. Hoette.  Measurers
        R. Holmes, T. Linder.  0.41-m f/11 Ritchey-Chretien + CCD.
    854 Sabino Canyon Observatory, Tucson.  Observer J. E. McGaha.  0.36-m f/10.0
        Schmidt-Cassegrain + CCD.
    900 Moriyama.  Observer Y. Ikari.  0.26-m f/7.0 reflector + CCD.
    B15 Inastars Observatory, Potsdam (since 2006).  Observer B. Thinius.  0.36-m
        f/6.3 Schmidt-Cassegrain + CCD.
    B28 Mandi Observatory, Pagnacco.  Observer p. corelli.  0.45-m f/4.5 reflector
        + CCD.
    C81 Dolomites Astronomical Observatory.  Observers R. Holmes, T. Linder,
        M. Maturi.  Measurers R. Holmes, T. Linder.  0.41-m f/11 Ritchey-Chretien
        + CCD.
    G48 Doc Greiner Research Obs., Rancho Hildalgo.  Observer M. Mills.  0.40-m
        f/10 Schmidt-Cassegrain + CCD.
    H06 RAS Observatory, Mayhill.  Observer H. Sato.  0.51-m f/4.5 reflector + CCD.
    I39 Observatorio Cruz del Sur, San Justo.  Observer A. Chapman.  0.20-m f/4
        reflector + CCD.
    
    Orbital elements:
    2011 WA                                             PHA, Earth MOID = 0.0499 AU
    Epoch 2011 Aug. 27.0 TT = JDT 2455800.5                 MPC
    M  32.71775              (2000.0)            P               Q
    n   1.26933162     Peri.  206.25503     -0.25914978     +0.88029642
    a   0.8447976      Node    51.55020     -0.77258620     +0.05797793
    e   0.2864979      Incl.   30.49242     -0.57961363     -0.47086811
    P   0.78           H   21.7           G   0.15           U   8
    Residuals in seconds of arc
    111116 703  0.5-  0.1-    111116 854  0.2+  1.0+    111116 B15  0.5-  0.2+
    111116 703  0.6-  0.1-    111116 854  0.2-  0.6+    111116 510  0.2-  0.2-
    111116 703  0.5+  0.6-    111116 718  0.0   0.0     111116 B15  0.1-  0.4+
    111116 703  0.7-  0.0     111116 718  0.6+  0.5-    111116 B15  0.1+  0.3+
    111116 H06  0.3-  0.3+    111116 718  0.4+  0.3-    111116 B15  0.1-  0.2+
    111116 G48  0.3+  0.7+    111116 718  0.6+  0.4-    111116 510  0.1-  0.0
    111116 H06  0.6-  0.1-    111116 900  0.2+  0.1-    111116 B15  0.1-  0.1+
    111116 H06  0.2-  0.5-    111116 900  0.2+  0.4-    111116 104  0.6-  0.3+
    111116 G48  0.2+  0.3+    111116 900  0.0   0.3-    111116 204  0.4-  0.1+
    111116 H06  0.4+  0.2-    111116 900  0.3-  0.2+    111116 104  0.5-  0.2+
    111116 G48  0.2-  0.4+    111116 300  0.7+  0.3-    111116 204  0.5-  0.3+
    111116 H06  0.1-  0.4-    111116 300  0.6+  0.2+    111116 204  0.6-  0.2+
    111116 G48  0.2+  0.4+    111116 900  0.6-  0.1-    111116 204  0.6-  0.3+
    111116 H06  0.5+  0.4+    111116 300  0.6+  0.3+    111116 104  0.4-  0.2+
    111116 G48  0.8+  0.1-    111116 160  0.1+  0.4-    111116 204  0.4-  0.2+
    111116 H06  0.8-  0.5+    111116 160  0.0   0.2-    111116 595  0.1-  0.1-
    111116 H06  0.0   0.6+    111116 160  0.2+  0.1-    111116 595  0.2-  0.2-
    111116 291  0.2+  0.3-    111116 160  0.2+  0.5-    111116 595  0.2-  0.0
    111116 291  0.2+  0.6-    111116 160  0.1-  0.1+    111116 B28  0.6-  0.6+
    111116 291  0.1-  0.2+    111116 160  0.2+  0.1+    111116 B28  0.6-  0.4+
    111116 807  0.2-  0.0     111116 160  0.0   0.1+    111116 C81  2.4+  1.3-
    111116 807  0.2-  0.3+    111116 510  0.2+  0.0     111116 C81  2.0+  1.6-
    111116 807  0.3-  0.2+    111116 510  0.1+  0.1-    111116 C81  1.9+  2.0-
    111116 807  0.1+  0.1+    111116 510  0.3-  0.4+    111116 C81  1.9+  1.9-
    111116 807  0.3-  0.1-    111116 510  0.0   0.2+    111117 I39  1.2-  1.3+
    111116 807  0.0   0.1+    111116 B15  0.7-  0.5+    111117 I39  0.9-  0.8+
    111116 854  0.1-  0.3+    111116 B15  0.3-  0.4+    111117 I39  0.6-  0.9+
    
    Ephemeris:
    2011 WA                  a,e,i = 0.84, 0.29, 30                  q = 0.6028
    Date    TT    R. A. (2000) Decl.     Delta      r     Elong.  Phase     V
    2011 10 18    08 46 57.7 -47 15 11   0.2359  0.9423    70.0    96.4    21.9
    ...
    2011 11 02    07 11 24.3 -47 49 45   0.1113  1.0013    91.4    82.3    19.8
    ...
    2011 11 10    04 09 42.0 -32 43 16   0.05800 1.0268   127.5    49.9    17.4
    ...
    2011 11 16    01 26 04.7 +07 12 08   0.06206 1.0430   149.4    28.8    17.0
    2011 11 17    01 07 43.8 +12 16 18   0.06750 1.0454   145.9    32.0    17.3
    2011 11 18    00 51 50.5 +16 28 43   0.07377 1.0478   142.1    35.4    17.6
    ...
    2011 11 24    23 52 25.6 +30 10 05   0.1206  1.0607   124.7    50.0    19.1
    ...
    2011 12 02    23 20 26.2 +36 32 08   0.1911  1.0738   112.5    58.0    20.4
    ...
    2011 12 17    23 05 18.5 +41 10 05   0.3232  1.0862    99.7    63.3    21.7
    
    A. U. Tomatic                (C) Copyright 2011 MPC           M.P.E.C. 2011-W04
    

    Read MPEC 2011-W03 Read MPEC 2011-W05


    MPEC number:

    Enter an MPEC number in one of the following forms:

    • 1997-B01 (the full form)
    • J97B01 (the packed version of the full form)
    • B01 (the abbreviated form)